sat.trackr.live / text

‹ back to catalog

STARLINK-36272

NORAD 68215 · 2026-053J

PAYLOAD ACTIVE UNKNOWN

§ Identity

Operator
Country
US
Launch date
2026-03-17
Launch site
AFWTR
Launch vehicle
Mass (kg)
RCS (m²)

Purposes: comms

External: N2YO · Heavens-Above · Gunter

§ Orbital elements

Epoch: 2026-09-20T02:56:18.873888Z

Period
93.91 min
Inclination
97.2861°
Eccentricity
0.0001203
Mean motion
15.33458900 rev/d
Perigee alt
464.7 km
Apogee alt
466.3 km
Semi-major
6,843.6 km
B*
4.3245e-4
RAAN
136.8735°
Arg perigee
99.3960°
Mean anomaly
260.7418°
Rev number
2,999

§ Raw data

STARLINK-362721 68215U 26053J   26263.12244067  .00013918  00000+0  43245-3 0  99952 68215  97.2861 136.8735 0001203  99.3960 260.7418 15.33458900 29997

JSON: /api/v1/satellites/68215 · /tle

For live sub-satellite position, see the globe view (requires WebGL).

§ Visibility from observer

Set your observer location to see the next 7 days of passes ≥ 10°. The values pass through the URL so the page stays shareable.

No JS? Fill the form by hand. The geolocation button needs JavaScript.